Time,TemperatureF,DewpointF,PressureIn,WindDirection,WindDirectionDegrees,WindSpeedMPH,WindSpeedGustMPH,Humidity,HourlyPrecipIn,Conditions,Clouds,dailyrainin,SolarRadiationWatts/m^2,SoftwareType,DateUTC
2013-08-27 00:10:00,65.3,64.0,29.90,WNW,302,0.0,-999.0,94,-99.99,,,0.02,0,weatherlink.com 1.10,2013-08-27 04:10:00,
2013-08-27 00:25:00,65.2,64.0,29.90,WNW,302,0.0,-999.0,94,-99.99,,,0.05,0,weatherlink.com 1.10,2013-08-27 04:25:00,
2013-08-27 00:40:00,65.3,64.0,29.89,WNW,302,0.0,-999.0,94,-99.99,,,0.08,0,weatherlink.com 1.10,2013-08-27 04:40:00,
2013-08-27 00:55:00,65.3,64.0,29.89,WNW,302,0.0,-999.0,94,-99.99,,,0.09,0,weatherlink.com 1.10,2013-08-27 04:55:00,
2013-08-27 01:10:00,65.3,64.0,29.89,WNW,302,0.0,-999.0,94,-99.99,,,0.10,0,weatherlink.com 1.10,2013-08-27 05:10:00,
2013-08-27 01:25:00,65.2,64.0,29.88,WNW,302,0.0,-999.0,94,-99.99,,,0.12,0,weatherlink.com 1.10,2013-08-27 05:25:00,
2013-08-27 01:40:00,65.1,64.0,29.88,WNW,302,0.0,-999.0,95,-99.99,,,0.16,0,weatherlink.com 1.10,2013-08-27 05:40:00,
2013-08-27 01:55:00,65.2,64.0,29.88,WNW,302,0.0,-999.0,95,-99.99,,,0.17,0,weatherlink.com 1.10,2013-08-27 05:55:00,
2013-08-27 02:10:00,65.1,64.0,29.88,North,355,0.0,-999.0,95,-99.99,,,0.17,0,weatherlink.com 1.10,2013-08-27 06:10:00,
2013-08-27 02:25:00,64.9,64.0,29.89,North,5,2.0,-999.0,95,-99.99,,,0.17,0,weatherlink.com 1.10,2013-08-27 06:25:00,
2013-08-27 02:40:00,64.6,63.0,29.89,NNE,20,2.0,-999.0,94,-99.99,,,0.17,0,weatherlink.com 1.10,2013-08-27 06:40:00,
2013-08-27 02:55:00,64.5,63.0,29.89,NNE,20,0.0,-999.0,94,-99.99,,,0.17,0,weatherlink.com 1.10,2013-08-27 06:55:00,
2013-08-27 03:10:00,64.3,63.0,29.88,NNE,20,0.0,-999.0,94,-99.99,,,0.17,0,weatherlink.com 1.10,2013-08-27 07:10:00,
2013-08-27 03:25:00,64.3,63.0,29.88,NNE,20,0.0,-999.0,94,-99.99,,,0.17,0,weatherlink.com 1.10,2013-08-27 07:25:00,
2013-08-27 03:40:00,64.2,63.0,29.89,NNE,20,0.0,-999.0,94,-99.99,,,0.17,0,weatherlink.com 1.10,2013-08-27 07:40:00,
2013-08-27 03:55:00,64.0,62.0,29.89,NNE,20,0.0,-999.0,94,-99.99,,,0.17,0,weatherlink.com 1.10,2013-08-27 07:55:00,
2013-08-27 04:10:00,63.9,62.0,29.89,NNE,20,0.0,-999.0,94,-99.99,,,0.17,0,weatherlink.com 1.10,2013-08-27 08:10:00,
2013-08-27 04:25:00,63.8,62.0,29.90,NNE,20,1.0,-999.0,94,-99.99,,,0.17,0,weatherlink.com 1.10,2013-08-27 08:25:00,
2013-08-27 04:40:00,63.8,62.0,29.90,NNE,13,0.0,-999.0,94,-99.99,,,0.17,0,weatherlink.com 1.10,2013-08-27 08:40:00,
2013-08-27 04:55:00,63.8,62.0,29.89,NNE,13,0.0,-999.0,94,-99.99,,,0.17,0,weatherlink.com 1.10,2013-08-27 08:55:00,
2013-08-27 05:10:00,63.8,62.0,29.91,NNE,13,0.0,-999.0,94,-99.99,,,0.17,0,weatherlink.com 1.10,2013-08-27 09:10:00,
2013-08-27 05:25:00,63.8,62.0,29.90,NW,317,1.0,-999.0,94,-99.99,,,0.17,0,weatherlink.com 1.10,2013-08-27 09:25:00,
2013-08-27 05:40:00,63.8,62.0,29.91,NW,317,0.0,-999.0,94,-99.99,,,0.17,0,weatherlink.com 1.10,2013-08-27 09:40:00,
2013-08-27 05:55:00,63.8,62.0,29.90,NW,317,0.0,-999.0,94,-99.99,,,0.17,0,weatherlink.com 1.10,2013-08-27 09:55:00,
2013-08-27 06:10:00,63.9,62.0,29.90,NW,317,0.0,-999.0,94,-99.99,,,0.17,0,weatherlink.com 1.10,2013-08-27 10:10:00,
2013-08-27 06:25:00,63.8,62.0,29.91,NW,317,0.0,-999.0,94,-99.99,,,0.17,0,weatherlink.com 1.10,2013-08-27 10:25:00,
2013-08-27 06:40:00,63.7,62.0,29.92,NW,317,0.0,-999.0,94,-99.99,,,0.17,5,weatherlink.com 1.10,2013-08-27 10:40:00,
2013-08-27 06:55:00,63.6,62.0,29.92,NW,317,0.0,-999.0,94,-99.99,,,0.17,16,weatherlink.com 1.10,2013-08-27 10:55:00,
2013-08-27 07:10:00,63.6,62.0,29.93,WNW,295,1.0,-999.0,94,-99.99,,,0.17,26,weatherlink.com 1.10,2013-08-27 11:10:00,
2013-08-27 07:25:00,63.5,62.0,29.93,West,281,1.0,-999.0,94,-99.99,,,0.17,28,weatherlink.com 1.10,2013-08-27 11:25:00,
2013-08-27 07:40:00,63.4,62.0,29.94,NNW,342,0.0,-999.0,94,-99.99,,,0.17,30,weatherlink.com 1.10,2013-08-27 11:40:00,
2013-08-27 07:55:00,63.4,62.0,29.95,NNW,332,1.0,-999.0,94,-99.99,,,0.17,30,weatherlink.com 1.10,2013-08-27 11:55:00,
2013-08-27 08:10:00,63.6,62.0,29.95,SSW,198,0.0,-999.0,94,-99.99,,,0.17,72,weatherlink.com 1.10,2013-08-27 12:10:00,
2013-08-27 08:25:00,63.7,62.0,29.95,SW,215,0.0,-999.0,94,-99.99,,,0.17,139,weatherlink.com 1.10,2013-08-27 12:25:00,
2013-08-27 08:40:00,64.0,62.0,29.95,SW,217,0.0,-999.0,94,-99.99,,,0.17,70,weatherlink.com 1.10,2013-08-27 12:40:00,
2013-08-27 08:55:00,64.1,62.0,29.95,NW,312,0.0,-999.0,94,-99.99,,,0.17,114,weatherlink.com 1.10,2013-08-27 12:55:00,
2013-08-27 09:10:00,64.3,62.0,29.95,WNW,303,0.0,-999.0,93,-99.99,,,0.17,104,weatherlink.com 1.10,2013-08-27 13:10:00,
2013-08-27 09:25:00,64.5,63.0,29.96,WNW,299,0.0,-999.0,93,-99.99,,,0.17,104,weatherlink.com 1.10,2013-08-27 13:25:00,
2013-08-27 09:40:00,64.7,63.0,29.96,NNW,327,0.0,-999.0,93,-99.99,,,0.17,125,weatherlink.com 1.10,2013-08-27 13:40:00,
2013-08-27 09:55:00,66.3,63.0,29.96,NW,320,2.0,-999.0,90,-99.99,,,0.17,204,weatherlink.com 1.10,2013-08-27 13:55:00,
2013-08-27 10:10:00,66.7,63.0,29.96,NNE,15,2.0,-999.0,88,-99.99,,,0.17,113,weatherlink.com 1.10,2013-08-27 14:10:00,
2013-08-27 10:25:00,66.0,63.0,29.96,WNW,297,0.0,-999.0,89,-99.99,,,0.17,109,weatherlink.com 1.10,2013-08-27 14:25:00,
2013-08-27 10:40:00,66.1,63.0,29.96,NNW,329,1.0,-999.0,88,-99.99,,,0.17,146,weatherlink.com 1.10,2013-08-27 14:40:00,
2013-08-27 10:55:00,66.5,63.0,29.96,NW,318,2.0,-999.0,87,-99.99,,,0.17,193,weatherlink.com 1.10,2013-08-27 14:55:00,
2013-08-27 11:10:00,67.4,64.0,29.96,North,355,3.0,-999.0,87,-99.99,,,0.17,251,weatherlink.com 1.10,2013-08-27 15:10:00,
2013-08-27 11:25:00,68.4,63.0,29.96,North,355,0.0,-999.0,84,-99.99,,,0.17,162,weatherlink.com 1.10,2013-08-27 15:25:00,
2013-08-27 11:40:00,68.4,63.0,29.97,NW,324,1.0,-999.0,84,-99.99,,,0.17,162,weatherlink.com 1.10,2013-08-27 15:40:00,
2013-08-27 11:55:00,68.7,64.0,29.96,NW,326,0.0,-999.0,85,-99.99,,,0.17,294,weatherlink.com 1.10,2013-08-27 15:55:00,
2013-08-27 12:10:00,69.6,64.0,29.97,North,355,3.0,-999.0,82,-99.99,,,0.17,185,weatherlink.com 1.10,2013-08-27 16:10:00,
2013-08-27 12:25:00,69.5,64.0,29.96,West,275,0.0,-999.0,83,-99.99,,,0.17,513,weatherlink.com 1.10,2013-08-27 16:25:00,
2013-08-27 12:40:00,70.8,64.0,29.96,North,9,2.0,-999.0,80,-99.99,,,0.17,397,weatherlink.com 1.10,2013-08-27 16:40:00,
2013-08-27 12:55:00,72.5,65.0,29.95,SE,135,1.0,-999.0,76,-99.99,,,0.17,464,weatherlink.com 1.10,2013-08-27 16:55:00,
2013-08-27 13:10:00,73.5,64.0,29.94,ENE,71,0.0,-999.0,72,-99.99,,,0.17,1079,weatherlink.com 1.10,2013-08-27 17:10:00,
2013-08-27 13:25:00,73.4,65.0,29.94,SSW,201,3.0,-999.0,74,-99.99,,,0.17,452,weatherlink.com 1.10,2013-08-27 17:25:00,
2013-08-27 13:40:00,73.2,65.0,29.94,NNE,23,3.0,-999.0,75,-99.99,,,0.17,540,weatherlink.com 1.10,2013-08-27 17:40:00,
2013-08-27 13:55:00,74.4,65.0,29.94,North,350,1.0,-999.0,72,-99.99,,,0.17,425,weatherlink.com 1.10,2013-08-27 17:55:00,
2013-08-27 14:10:00,74.9,65.0,29.93,NNW,328,2.0,-999.0,70,-99.99,,,0.17,925,weatherlink.com 1.10,2013-08-27 18:10:00,
2013-08-27 14:25:00,76.7,65.0,29.93,WNW,288,2.0,-999.0,67,-99.99,,,0.17,357,weatherlink.com 1.10,2013-08-27 18:25:00,
2013-08-27 14:40:00,77.2,65.0,29.92,WNW,292,3.0,-999.0,66,-99.99,,,0.17,777,weatherlink.com 1.10,2013-08-27 18:40:00,
2013-08-27 14:55:00,75.8,64.0,29.92,WSW,248,6.0,-999.0,68,-99.99,,,0.17,647,weatherlink.com 1.10,2013-08-27 18:55:00,
2013-08-27 15:10:00,74.5,64.0,29.93,NW,315,4.0,-999.0,70,-99.99,,,0.17,251,weatherlink.com 1.10,2013-08-27 19:10:00,
2013-08-27 15:25:00,73.7,64.0,29.93,NW,309,1.0,-999.0,71,-99.99,,,0.17,262,weatherlink.com 1.10,2013-08-27 19:25:00,
2013-08-27 15:40:00,73.7,64.0,29.92,WNW,294,0.0,-999.0,72,-99.99,,,0.17,334,weatherlink.com 1.10,2013-08-27 19:40:00,
2013-08-27 15:55:00,74.8,64.0,29.92,West,265,0.0,-999.0,69,-99.99,,,0.17,411,weatherlink.com 1.10,2013-08-27 19:55:00,
2013-08-27 16:10:00,74.3,64.0,29.92,West,263,3.0,-999.0,70,-99.99,,,0.17,207,weatherlink.com 1.10,2013-08-27 20:10:00,